SAVONLINNA_(AUT) current weather conditions

sailwx.info

Wind from 100 at 5 knots

Air temperature -4.0° C
Visibility: greater than 1.1 NM
Dewpoint -4.0° C
Present weather: Light snow.

Last reported at 2020-Jan-26 07:50 UTC.
Time now 2020-Jan-26 09:06 UTC

Location: N 61°57' E 028°57'.
View on Google Maps.

See reports from other nearby stations

  
Tides and Currents Weather Stations Pressure Air Temp Water Temp Dewpoint Dewpoint Depression Visibility Wind Speed Wind Dir Waves Ship Positions
date/time (UTC)wind fromknots sea level pressurealtimeterstation pressurevisibilityair tempwater tempwave heightnotes
2020-Jan-26 07:50 100 5 1.1-4.0 Light snow.
2020-Jan-26 07:20 110 2 0.6-4.0 Snow.
2020-Jan-26 06:50 120 5 0.7-4.0 Snow.
2020-Jan-26 06:20 140 6 1.0-4.0 Snow.
2020-Jan-26 05:50 140 5 1.5-4.0 Light snow.
2020-Jan-26 05:20 150 2 2.2-4.0 Light snow.
2020-Jan-26 04:50 190 4 2.5-4.0 Light snow.
2020-Jan-26 04:20 200 4 5.4-4.0
2020-Jan-26 03:50 180 4 5.4-5.0
2020-Jan-26 03:20 200 2 5.4-5.0
2020-Jan-26 02:50 210 4 5.4-5.0
2020-Jan-26 02:20 230 5 5.4-5.0
2020-Jan-26 01:50 220 2 5.4-5.0
2020-Jan-26 01:20 240 2 5.4-5.0
2020-Jan-26 00:50 250 6 5.4-5.0
2020-Jan-26 00:20 220 4 5.4-4.0
2020-Jan-25 23:50 260 4 5.4-4.0
2020-Jan-25 23:20 280 5 5.4-4.0
2020-Jan-25 22:50 280 6 5.4-4.0
2020-Jan-25 22:20 290 8 5.4-4.0
2020-Jan-25 21:50 290 6 5.4-4.0
2020-Jan-25 21:20 300 6 5.4-4.0
2020-Jan-25 20:50 310 7 5.4-3.0
2020-Jan-25 20:20 310 7 5.4-3.0
2020-Jan-25 19:50 300 7 5.4-3.0
2020-Jan-25 19:20 310 12 5.4-3.0
2020-Jan-25 18:50 310 8 5.4-3.0
2020-Jan-25 18:20 300 8 5.4-3.0
2020-Jan-25 17:50 290 8 5.4-4.0
2020-Jan-25 17:20 280 8 5.4-4.0
2020-Jan-25 16:50 280 7 5.4-4.0
2020-Jan-25 16:20 290 8 5.4-3.0
2020-Jan-25 15:50 310 11 5.4-3.0
2020-Jan-25 15:20 310 11 5.4-2.0
2020-Jan-25 14:50 310 13 5.4-2.0
2020-Jan-25 14:20 300 15 5.4-2.0
2020-Jan-25 13:50 320 18 gusting 29 5.4-2.0
2020-Jan-25 13:20 310 13 5.4-1.0
2020-Jan-25 12:50 300 13 5.4-1.0
2020-Jan-25 12:20 300 12 5.4-1.0
2020-Jan-25 11:50 300 13 5.4-1.0 Light snow showers.
2020-Jan-25 11:20 300 13 5.4-2.0 Light snow showers.
2020-Jan-25 10:50 290 12 5.4-1.0 Light snow showers.
2020-Jan-25 10:20 300 13 5.4-2.0 Light snow showers.
2020-Jan-25 09:50 300 13 5.4-2.0 Light snow showers.
2020-Jan-25 09:20 310 13 5.4-1.0 Light snow.
2020-Jan-25 08:50 310 13 5.4-1.0
2020-Jan-25 08:20 300 15 5.4-1.0
2020-Jan-25 07:50 300 13 gusting 24 5.4-1.0
2020-Jan-25 07:20 300 13 5.4-1.0
2020-Jan-25 06:50 300 15 5.4-1.0
2020-Jan-25 06:20 300 14 gusting 27 5.4-1.0
2020-Jan-25 05:50 290 13 5.4-1.0
2020-Jan-25 05:20 290 14 5.4-1.0
2020-Jan-25 04:50 290 13 5.4-1.0
2020-Jan-25 04:20 280 11 gusting 21 5.4-1.0 Light snow showers.
2020-Jan-25 03:50 270 9 5.4-1.0 Light snow showers.
2020-Jan-25 03:20 280 9 5.4-1.0
2020-Jan-25 02:50 270 9 5.4-1.0
2020-Jan-25 02:20 260 9 5.4-1.0
2020-Jan-25 01:50 260 8 5.4-1.0
2020-Jan-25 01:20 260 6 5.4-1.0 Light snow.
2020-Jan-25 00:50 260 6 5.4-1.0
2020-Jan-25 00:20 250 11 5.4-1.0
2020-Jan-24 23:50 250 11 5.4-1.0
2020-Jan-24 23:20 240 11 5.4-1.0
2020-Jan-24 22:50 250 11 5.4-1.0
2020-Jan-24 22:20 260 8 5.4-1.0 Light snow showers.
2020-Jan-24 21:50 240 6 5.4-2.0
2020-Jan-24 21:20 240 8 5.4-2.0
2020-Jan-24 20:50 250 6 5.4-2.0
2020-Jan-24 20:20 260 6 5.4-2.0
2020-Jan-24 19:50 260 7 5.4-2.0
2020-Jan-24 19:20 250 6 5.4-2.0
2020-Jan-24 18:50 260 6 5.4-2.0
2020-Jan-24 18:20 260 7 5.4-2.0
2020-Jan-24 17:50 270 7 5.4-2.0
2020-Jan-24 17:20 270 7 5.4-2.0
2020-Jan-24 16:50 260 7 5.4-2.0
2020-Jan-24 16:20 260 7 5.4-2.0
2020-Jan-24 15:50 270 6 5.4-2.0
2020-Jan-24 15:20 260 6 5.4-2.0
2020-Jan-24 14:50 260 8 5.4-1.0
2020-Jan-24 14:20 260 6 5.4-1.0
2020-Jan-24 13:50 250 8 5.4-1.0
2020-Jan-24 13:20 260 8 5.4-1.0
2020-Jan-24 12:50 260 5 5.4-1.0
2020-Jan-24 12:20 280 4 5.4-1.0
2020-Jan-24 11:50 280 6 5.4-0.0
2020-Jan-24 11:20 270 8 5.4-0.0
2020-Jan-24 10:50 270 9 5.4-0.0
2020-Jan-24 10:20 270 8 5.4-0.0
2020-Jan-24 09:50 270 7 5.4-0.0
2020-Jan-24 09:20 260 7 5.4-1.0